{"data":{"norad_id":67994,"intl_designator":"2026-039J","name":"STARLINK-36993","alt_names":[],"object_type":"PAYLOAD","status":"ACTIVE","operator":null,"country":"US","launch_date":"2026-02-27","launch_site_code":"AFETR","launch_vehicle":null,"mission":null,"orbit_class":"UNKNOWN","rcs_meters":null,"size_class":null,"mass_kg":null,"dimensions":null,"purposes":["comms"],"wikipedia_slug":null,"has_3d_model":false,"image_url":null,"decayed_at":null,"tle_current":{"epoch":"2026-05-24T20:46:53.696064Z","epoch_age_seconds":83952,"freshness":"FRESH","line1":"1 67994U 26039J   26144.86589926  .00021321  00000+0  78195-3 0  9996","line2":"2 67994  43.0048 338.7209 0001324 260.5395  99.5307 15.27585546 13351","mean_motion":15.27585546,"eccentricity":0.0001324,"inclination_deg":43.0048,"raan_deg":338.7209,"arg_perigee_deg":260.5395,"mean_anomaly_deg":99.5307,"bstar":0.00078195,"rev_number":1335,"period_min":94.266406472008,"perigee_km":482.12407053034,"apogee_km":483.94090821113,"semimajor_km":6861.1694893707,"source":"CELESTRAK","updated_at":"2026-05-25T13:38:21.780522Z"}}}